Location: Cicognara
(44.9500°N, 10.4667°E)
Time: 07:03:07
(UTC+00:00)

NOSS 3-1 (C) - Pass Details

Date: 20 June 2021
Orbit: 724 x 1485 km, 63.4° (Epoch: 20 July)

Event Time Altitude Azimuth Distance (km) Brightness Sun altitude
Exits shadow 23:46:47 26° 243° (WSW) 1,556 4.3 -21.3°
Maximum altitude 23:49:50 59° 314° (NW) 991 3.7 -21.3°
Drops below altitude 10° 23:56:04 10° 34° (NNE) 2,756 6.8 -21.1°
Sets 23:58:58 0° 38° (NE) 3,833 7.7 -21.0°
